Theta_e
318 319 321 317 317 319 319 318 317 315 316 314 312 310 309 308 307 308 309 310 309 307 303 301 300 300 299 298 297 296 295 294 294 292 292 292 292 292 292 292 291 292 293
313 316 316 314 316 319 319 318 318 316 316 315 314 313 309 308 307 307 308 309 308 305 303 301 299 300 299 297 296 296 294 293 293 291 289 286 289 291 293 291 292 290 291
310 312 312 313 315 318 318 319 318 317 316 317 314 309 307 306 305 305 305 306 306 305 303 301 300 298 298 296 295 294 294 292 292 292 290 285 283 286 289 290 290 290 289
310 312 313 313 315 319 320 320 319 317 317 318 314 309 307 304 305 305 305 305 305 304 303 301 300 298 298 296 295 296 294 292 290 291 294 290 289 285 284 288 289 288 290
308 311 313 314 316 319 319 319 319 318 319 319 317 311 306 305 305 305 305 304 303 303 302 300 299 298 297 294 293 292 291 292 291 289 289 288 287 286 285 282 285 288 289
307 312 315 316 318 319 320 318 319 319 319 319 316 311 307 305 305 304 303 303 302 300 300 299 298 297 294 293 292 291 291 289 289 289 288 288 287 287 285 283 284 284 287
307 312 315 317 318 319 320 319 319 319 319 319 316 312 308 307 306 305 305 301 298 299 298 299 298 297 295 294 294 292 290 289 288 288 289 290 290 290 288 286 285 284 283
310 314 317 318 318 320 321 320 320 319 318 316 314 310 308 307 305 304 303 301 300 298 298 299 297 297 297 295 293 291 290 290 288 288 288 288 289 289 290 287 284 281 283
310 315 317 319 319 321 319 319 319 318 314 312 309 306 306 303 302 303 302 299 299 300 299 297 297 296 295 293 292 290 289 289 288 287 287 287 288 289 289 288 288 287 283
311 314 316 317 318 319 319 318 317 315 310 308 306 304 303 303 302 301 299 299 299 299 297 296 296 294 294 292 292 291 289 289 288 288 287 287 287 287 287 289 288 289 286
311 314 316 317 318 317 313 315 312 310 307 305 302 301 301 302 301 299 299 299 299 298 298 297 295 294 292 292 291 290 289 288 288 288 288 288 287 286 285 284 282 281 280
310 313 315 315 313 312 312 311 311 309 307 301 301 302 302 302 301 300 298 299 298 298 297 296 293 292 292 292 290 288 288 288 287 287 287 286 288 284 283 281 280 279 278
306 308 310 312 313 312 311 307 304 300 302 303 302 303 303 302 299 298 299 298 297 296 294 292 292 292 291 290 289 288 288 288 288 287 286 286 285 283 280 279 278 277 279
307 304 306 308 310 309 306 303 302 302 302 303 303 302 301 301 301 298 295 295 295 293 293 293 292 292 290 289 289 289 287 286 286 286 284 283 283 281 279 279 278 277 276
305 304 303 305 306 305 303 303 303 305 305 304 303 303 302 300 296 294 293 295 294 294 293 293 292 290 289 289 287 286 285 284 283 283 283 282 283 285 282 279 277 276 275
302 305 305 306 306 303 301 303 303 304 304 302 299 297 296 296 295 295 294 293 293 293 293 291 290 288 288 289 289 287 283 283 282 281 281 281 284 284 286 285 283 279 276
303 304 305 304 302 301 302 300 298 296 295 297 296 296 296 294 293 293 293 293 292 291 290 290 288 287 287 289 290 289 283 282 281 280 280 281 282 283 281 284 283 281 281
296 296 297 297 296 294 294 294 294 295 295 294 293 293 293 293 294 295 294 291 290 288 287 287 287 286 287 289 289 289 284 281 280 280 280 281 280 280 280 278 277 277 277
290 290 291 292 292 292 292 291 291 293 292 292 293 295 295 295 295 292 290 289 287 286 286 286 286 285 284 287 288 287 282 281 280 281 281 282 281 282 284 278 277 277 277
289 289 289 289 289 288 290 289 289 291 291 292 294 295 294 293 291 289 287 287 286 285 285 284 284 285 284 287 288 287 281 280 281 281 282 284 282 282 282 276 275 273 276
287 289 289 288 288 290 290 289 289 290 293 294 293 293 291 290 289 287 286 285 284 283 283 283 283 283 283 284 288 288 282 282 283 282 281 281 283 283 283 282 276 274 277
287 288 288 288 289 290 290 289 289 291 291 290 289 288 288 287 287 285 284 284 283 282 282 278 281 281 282 285 286 287 287 285 283 282 281 281 283 283 283 281 281 282 278
286 288 289 289 289 290 290 287 288 289 288 287 286 286 286 285 285 283 283 282 282 280 281 281 281 282 282 281 285 286 286 286 285 284 283 283 283 284 282 283 282 279 276
288 290 289 289 289 290 289 287 287 287 286 284 284 284 283 283 283 283 283 282 280 280 282 282 282 282 283 281 281 281 281 285 285 284 285 282 281 280 280 278 280 277 275
289 290 288 287 285 285 285 285 285 285 284 283 283 283 282 282 283 283 282 283 283 283 283 284 283 283 282 282 283 282 280 280 281 282 282 280 279 278 278 277 277 276 275
288 286 285 284 283 284 284 285 285 284 283 282 282 281 281 281 281 281 282 285 285 286 286 286 284 285 286 286 287 286 285 286 285 281 280 277 277 277 277 276 276 274 273
Wind_Speed
14 11 10 7 7 6 7 9 10 7 8 5 4 3 4 2 2 2 6 6 6 6 6 5 5 4 5 5 4 3 3 2 1 2 3 2 2 1 2 1 1 3 2
11 13 12 9 11 12 11 9 11 12 8 5 3 3 4 1 2 3 4 5 6 7 7 7 5 6 5 5 3 3 2 1 3 2 1 3 5 2 3 1 2 0 2
17 16 15 16 13 14 15 14 15 14 10 8 4 3 4 3 2 2 2 4 6 7 7 7 6 5 4 4 3 4 4 2 1 0 3 2 3 2 3 3 2 2 1
16 16 17 17 19 19 13 13 12 11 9 10 6 7 5 5 4 4 3 4 6 6 5 5 5 5 3 5 4 4 3 3 1 2 1 2 3 3 4 2 3 1 3
19 20 21 21 14 12 12 10 10 10 9 10 7 5 5 3 2 3 5 4 2 4 6 5 5 5 4 4 4 4 4 2 2 3 2 2 1 2 4 4 3 3 4
14 15 14 11 11 9 10 11 14 14 12 10 8 8 8 7 4 4 4 3 4 4 6 6 6 4 5 3 3 2 1 3 2 2 3 4 3 3 3 4 4 5 3
11 12 13 14 13 14 14 11 13 12 10 11 9 8 8 9 8 7 6 7 5 4 6 7 5 3 3 3 3 2 1 1 2 2 1 0 2 2 3 2 4 4 2
12 13 15 14 14 15 15 12 13 12 10 8 9 7 7 5 4 5 7 6 7 6 6 6 3 5 5 3 2 1 1 1 2 2 1 2 3 3 3 3 2 3 3
14 15 14 13 12 13 14 13 12 10 9 9 7 7 7 9 8 10 11 9 6 7 7 3 3 0 3 3 4 2 3 3 3 3 3 3 4 3 3 2 2 2 3
7 9 11 11 11 11 12 10 11 12 9 9 8 8 9 11 12 11 12 12 10 5 4 5 3 4 5 5 5 4 4 5 3 3 3 3 2 2 2 2 2 3 3
9 10 10 11 11 9 9 11 10 10 10 10 8 11 10 11 11 10 10 9 8 8 6 6 9 10 6 6 5 5 4 3 3 3 4 5 3 3 2 1 2 2 2
11 11 12 11 11 12 11 12 9 8 7 7 9 11 11 10 9 9 10 9 8 9 11 9 9 7 5 5 5 4 3 3 5 5 4 5 3 3 3 2 3 3 3
6 5 5 10 13 12 8 6 9 11 13 14 14 13 10 9 9 10 9 8 10 7 7 7 6 6 5 6 4 3 4 4 5 5 4 5 4 4 3 4 3 3 2
10 7 5 5 5 5 6 8 8 10 12 13 13 11 10 10 10 10 7 6 5 6 5 6 5 4 5 5 5 4 4 4 4 4 4 5 6 6 6 5 5 4 3
8 8 8 6 5 8 8 8 9 10 10 10 10 7 5 5 6 7 6 4 5 5 5 3 3 5 5 4 5 5 5 5 5 5 5 5 6 9 8 4 5 4 3
3 7 7 8 8 8 9 9 10 9 8 8 9 9 8 9 7 4 5 4 2 3 3 6 6 6 4 8 10 7 5 6 6 6 5 5 7 7 8 10 8 7 4
7 6 6 6 7 9 11 10 9 10 11 11 10 10 8 7 5 5 4 5 5 5 6 6 5 7 6 9 10 11 5 5 6 6 5 5 4 6 5 7 7 6 8
8 8 7 9 9 10 12 12 11 11 12 11 11 9 6 5 4 4 3 5 5 5 5 6 7 6 5 9 11 12 6 5 6 6 6 5 5 5 6 5 5 5 5
8 8 9 10 11 11 11 13 12 12 13 10 8 5 5 4 2 3 5 5 4 4 5 5 6 6 7 11 10 8 5 6 7 6 6 6 6 10 12 6 6 5 6
8 10 11 12 13 9 12 15 12 11 8 6 5 3 4 2 3 4 5 3 3 5 4 6 6 8 8 10 12 9 4 6 6 6 7 13 9 11 13 6 6 5 6
11 11 12 13 11 10 12 12 8 7 5 3 3 1 0 2 3 4 2 4 5 5 6 6 6 7 8 8 13 13 5 6 7 7 6 6 13 14 15 15 7 8 4
11 10 11 9 7 7 9 8 7 4 4 4 3 1 2 3 3 4 5 5 5 6 6 5 7 6 8 12 14 16 15 13 9 10 7 7 14 15 16 13 13 14 7
7 7 10 10 8 8 6 6 3 3 2 2 2 3 4 4 5 5 6 4 5 5 7 6 7 8 6 7 16 18 17 19 11 10 13 15 15 16 13 16 16 9 4
8 8 9 8 7 6 7 7 7 6 5 5 6 5 5 6 6 4 4 4 5 6 7 7 8 9 8 7 6 6 7 13 11 13 11 10 10 9 8 5 8 4 4
7 6 7 7 9 8 8 7 7 6 6 6 6 6 5 6 7 5 5 6 7 7 9 10 8 10 11 11 13 10 6 6 9 7 5 5 6 6 6 6 6 5 4
7 9 9 9 6 8 8 8 8 7 7 7 6 5 5 5 6 7 9 8 12 17 18 20 14 13 20 24 19 15 18 17 15 5 5 7 7 8 7 7 7 5 5
Wind_Direction
206 202 199 196 146 137 147 154 145 146 140 139 139 109 131 110 107 152 157 153 141 131 124 125 133 134 112 126 126 94 101 50 11 63 337 355 118 275 75 94 100 24 13
190 199 194 172 170 173 170 163 166 162 169 157 135 143 136 167 163 175 161 153 151 147 146 144 146 135 117 108 111 133 123 98 29 109 115 8 326 313 332 175 5 204 319
194 194 188 181 174 181 180 180 178 175 172 156 128 89 98 88 118 174 154 185 162 163 151 155 142 135 115 148 146 118 106 107 331 132 138 10 247 327 329 308 224 329 299
202 198 191 191 190 193 183 184 177 174 174 164 167 162 176 160 190 171 163 180 185 170 151 125 120 132 131 123 120 114 114 122 209 346 255 255 163 222 316 317 283 335 303
198 195 194 199 188 182 184 177 169 177 181 183 180 183 155 136 123 127 162 171 120 75 103 123 124 107 92 98 120 120 134 165 160 187 225 253 219 208 221 274 276 333 290
200 203 196 183 180 177 183 178 181 190 188 187 178 179 168 167 148 151 150 129 87 80 83 96 93 69 86 98 100 102 155 174 192 208 204 204 192 205 216 253 259 234 238
179 176 175 180 175 183 191 189 190 197 185 183 186 183 180 177 182 168 163 137 130 120 118 119 111 125 134 131 156 113 319 261 235 246 283 255 251 203 219 216 256 257 293
170 174 181 182 181 188 189 192 189 197 193 186 182 181 171 160 146 143 129 125 115 110 86 75 157 145 152 125 109 180 203 54 53 38 293 258 257 233 216 225 191 286 253
178 178 178 183 181 186 192 190 188 196 188 183 167 164 159 146 138 123 118 115 109 123 139 138 127 98 137 184 184 175 141 166 195 229 243 244 266 277 282 243 200 212 283
160 167 178 175 180 187 186 185 186 185 172 166 168 158 143 140 138 126 119 130 130 109 127 144 200 222 202 188 170 170 176 193 217 221 247 258 262 277 190 176 156 204 235
173 176 183 184 185 176 186 188 175 164 159 156 147 135 130 127 119 123 130 126 137 158 157 183 189 211 197 183 181 192 200 232 266 267 249 257 239 238 239 158 130 168 185
185 187 187 180 175 183 186 189 181 160 145 115 113 109 110 110 114 128 141 151 159 175 185 177 210 199 200 189 202 217 234 239 252 255 244 253 243 226 209 179 200 200 217
209 193 174 190 190 190 175 153 139 137 133 129 129 128 132 139 146 153 159 162 171 190 186 195 204 205 199 205 202 206 232 230 244 252 241 258 262 246 210 210 217 219 230
198 194 197 188 169 150 128 121 129 138 136 134 139 139 141 154 160 157 167 156 165 190 188 211 210 193 201 192 197 193 210 235 249 251 246 263 246 219 207 212 218 211 228
174 184 182 185 154 132 126 126 128 138 139 135 137 145 127 122 117 118 142 156 157 208 216 208 186 201 195 196 199 219 224 235 255 255 255 257 240 238 219 186 208 198 220
181 190 169 162 156 133 127 123 127 130 125 116 107 103 100 108 122 133 115 143 206 300 270 210 203 208 215 212 215 211 222 236 238 245 255 253 268 265 222 207 206 190 195
56 79 92 98 113 124 130 126 114 111 109 115 115 112 104 94 90 91 79 18 314 249 235 246 226 221 224 225 225 227 220 226 233 234 242 260 248 223 207 205 206 221 244
52 53 72 86 82 93 95 103 102 101 105 97 97 99 101 104 78 50 341 263 251 258 261 250 237 228 242 238 235 236 226 231 239 235 237 231 247 234 218 207 220 230 237
61 66 70 83 87 91 99 96 88 96 98 97 95 83 78 73 31 257 259 268 262 270 253 248 250 235 249 240 235 236 220 229 239 237 229 224 238 248 234 197 220 242 255
71 81 81 83 80 76 93 93 97 99 102 90 77 89 73 202 246 266 267 259 256 266 288 280 257 254 251 241 239 237 197 233 238 238 236 240 230 232 219 196 208 235 256
83 86 84 85 85 92 97 98 100 92 95 86 86 115 257 268 274 286 275 274 286 291 285 276 269 259 242 249 243 241 202 226 245 249 239 228 227 225 221 218 203 218 219
89 85 85 75 61 65 85 82 82 81 82 90 85 24 302 294 292 281 283 291 292 283 276 274 278 254 252 246 251 244 229 220 234 246 240 231 224 225 227 230 230 238 228
82 82 88 83 66 71 77 87 81 92 80 24 326 297 297 286 274 269 276 277 272 260 271 266 274 276 249 245 244 246 241 234 232 239 244 235 225 222 235 230 235 238 211
93 93 90 86 70 54 52 42 28 12 15 357 348 338 329 316 309 297 286 282 278 280 275 274 270 270 269 247 240 236 244 245 232 239 245 233 221 212 214 218 236 214 213
94 88 80 73 69 71 55 37 29 31 32 21 6 357 348 338 326 310 287 288 277 256 287 288 279 281 276 261 240 221 216 221 233 228 215 209 209 213 215 221 228 224 214
95 86 83 81 65 69 55 36 26 31 31 19 1 345 335 332 323 318 316 271 272 289 285 281 276 282 271 272 268 242 244 241 232 216 211 219 213 216 214 219 227 214 222